sat.trackr.live / text

‹ back to catalog

STARLINK-37070

NORAD 68280 · 2026-055U

PAYLOAD ACTIVE UNKNOWN

§ Identity

Operator
Country
US
Launch date
2026-03-19
Launch site
AFETR
Launch vehicle
Mass (kg)
RCS (m²)

Purposes: comms

External: N2YO · Heavens-Above · Gunter

§ Orbital elements

Epoch: 2026-05-25T04:43:33.987360Z

Period
93.85 min
Inclination
53.1591°
Eccentricity
0.0001283
Mean motion
15.34403237 rev/d
Perigee alt
461.8 km
Apogee alt
463.6 km
Semi-major
6,840.8 km
B*
6.9374e-4
RAAN
322.5153°
Arg perigee
90.8986°
Mean anomaly
269.2164°
Rev number
1,166

§ Raw data

STARLINK-370701 68280U 26055U   26145.19692115  .00023138  00000+0  69374-3 0  99922 68280  53.1591 322.5153 0001283  90.8986 269.2164 15.34403237 11661

JSON: /api/v1/satellites/68280 · /tle

For live sub-satellite position, see the globe view (requires WebGL).

§ Visibility from observer

Set your observer location to see the next 7 days of passes ≥ 10°. The values pass through the URL so the page stays shareable.

No JS? Fill the form by hand. The geolocation button needs JavaScript.